Regional Weather Roundup
Issued by NWS

Home | Current Version | Previous Version | Text Only | Print | Product List | Glossary On
Versions: 1 2 3 4 5 6 7 8 9 10 11 12 13 14 15 16 17 18 19 20 21 22 23 24 25 26 27 28 29 30 31 32 33 34 35 36 37 38 39 40 41 42 43 44 45 46 47 48 49 50
000
ASUS43 KTOP 261159
RWRKS

WEATHER ROUNDUP FOR KANSAS
NATIONAL WEATHER SERVICE GOODLAND KS
700 AM CDT FRI MAY 26 2017

NOTE:  "FAIR" INDICATES FEW OR NO CLOUDS BELOW 12,000 FEET WITH NO
SIGNIFICANT WEATHER AND/OR OBSTRUCTIONS TO VISIBILITY.

KSZ001>006-013>018-027>032-041>047-261300-
NORTHWEST KANSAS

CITY           SKY/WX    TMP DP  RH WIND       PRES   REMARKS
GOODLAND       CLOUDY    54  51  90 W10       29.90R
6HR MIN TEMP:  53; 6HR MAX TEMP:  58; 6HR PCP: TRACE;

HAYS           CLEAR     56  53  90 NW13      29.77R
HILL CITY      CLEAR     59  55  87 NW7       29.80R
6HR MIN TEMP:  54; 6HR MAX TEMP:  62;

RUSSELL        CLEAR     56  53  90 NW6       29.72R
6HR MIN TEMP:  54; 6HR MAX TEMP:  63;

$$

KSZ061>065-074>080-084>089-261300-
SOUTHWEST KANSAS

CITY           SKY/WX    TMP DP  RH WIND       PRES   REMARKS
DODGE CITY     CLEAR     54  51  90 NW10      29.79R
6HR MIN TEMP:  53; 6HR MAX TEMP:  62;

ELKHART          N/A    N/A N/A N/A MISG        N/A
GARDEN CITY    CLEAR     54  49  83 NW14      29.85R
6HR MIN TEMP:  50; 6HR MAX TEMP:  61;

GREAT BEND     CLEAR     56  54  93 NW7       29.74R
LIBERAL        CLEAR     55  51  86 NW15      29.85R
$$

KSZ066>073-081>083-090>101-261300-
SOUTHEAST KANSAS

CITY           SKY/WX    TMP DP  RH WIND       PRES   REMARKS
CHANUTE        PTCLDY    65  59  81 SE10      29.64S
6HR MIN TEMP:  64; 6HR MAX TEMP:  71;

COFFEYVILLE    CLOUDY    65  64  97 E8        29.65R
6HR MIN TEMP:  64; 6HR MAX TEMP:  70;

HUTCHINSON     CLEAR     62  60  93 N8        29.69R
6HR MIN TEMP:  57; 6HR MAX TEMP:  67;

MEDICINE LODGE   N/A     63  59  87 N15       29.69R
NEWTON         CLEAR     61  59  93 N9        29.70R
PARSONS        PTCLDY    66  60  81 SE6       29.65S
6HR MIN TEMP:  65; 6HR MAX TEMP:  71;

WICHITA INTL   PTCLDY    64  61  90 N15       29.67R
6HR MIN TEMP:  62; 6HR MAX TEMP:  71;

WICHITA JABRA  CLEAR     61  60  97 N9        29.67R
6HR MIN TEMP:  59; 6HR MAX TEMP:  68;

WINFIELD       CLOUDY    65  60  84 E8        29.63R
6HR MIN TEMP:  64; 6HR MAX TEMP:  73;

$$

KSZ007>012-019>026-033>040-048>060-102>105-261300-
NORTHEAST KANSAS

CITY           SKY/WX    TMP DP  RH WIND       PRES   REMARKS
CONCORDIA      CLEAR     59  58  96 NW6       29.72R
6HR MIN TEMP:  58; 6HR MAX TEMP:  64;

EMPORIA        CLEAR     62  60  93 CALM      29.67R
6HR MIN TEMP:  60; 6HR MAX TEMP:  69; 6HR PCP:  0.16;

LAWRENCE       CLEAR     63  61  93 N5        29.69R
6HR MIN TEMP:  59; 6HR MAX TEMP:  66; 6HR PCP:  0.03;

MANHATTAN      CLEAR     59  58  96 CALM      29.70R
6HR MIN TEMP:  57; 6HR MAX TEMP:  68; 6HR PCP:  0.07;

OLATHE IND     SUNNY     64  60  87 CALM      29.68R
6HR MIN TEMP:  63; 6HR MAX TEMP:  66; 6HR PCP:  0.01;

OLATHE EXE     SUNNY     63  61  93 NW6       29.67R
6HR MIN TEMP:  61; 6HR MAX TEMP:  65; 6HR PCP: TRACE;

SALINA         CLEAR     61  58  90 CALM      29.71R
6HR MIN TEMP:  59; 6HR MAX TEMP:  69; 6HR PCP: TRACE;

TOPEKA BILLARD CLEAR     61  61 100 SE3       29.69R
6HR MIN TEMP:  60; 6HR MAX TEMP:  66; 6HR PCP:  0.05;

TOPEKA FORBES  CLEAR     63  61  93 CALM      29.69R
6HR MIN TEMP:  60; 6HR MAX TEMP:  68; 6HR PCP:  0.08;

$$



USA.gov is the U.S. government's official web portal to all federal, state and local government web resources and services.